Location: Ferintosh
(52.7647°N, 112.9692°W)
Time: 19:33:27
(UTC+00:00)

Explorer 7 - Pass Details

Date: 21 May 2024
Orbit: 466 x 622 km, 50.3° (Epoch: 16 June)

Event Time Altitude Azimuth Distance (km) Brightness Sun altitude
Rises 09:43:53 0° 265° (W) 2,615 - -11.2°
Exits shadow 09:44:58 - 264° (W) 2,183 9.5 -11.1°
Reaches altitude 10° 09:46:02 10° 262° (W) 1,755 9.0 -11.1°
Maximum altitude 09:49:59 62° 182° (S) 611 6.8 -10.7°
Drops below altitude 10° 09:54:09 10° 102° (ESE) 1,854 9.8 -10.4°
Sets 09:56:29 0° 99° (E) 2,779 10.8 -10.2°
